Regional Weather Roundup
Issued by NWS

Home | Current Version | Previous Version | Graphics & Text | Print | Product List | Glossary On
Versions: 1 2 3 4 5 6 7 8 9 10 11 12 13 14 15 16 17 18 19 20 21 22 23 24 25 26 27 28 29 30 31 32 33 34 35 36 37 38 39 40 41 42 43 44 45 46 47 48 49 50
611
ASUS43 KFSD 191202
RWRSD

WEATHER ROUNDUP FOR SOUTH DAKOTA
NATIONAL WEATHER SERVICE SIOUX FALLS SD
600 AM CST THU JAN 19 2017

NOTE: "FAIR" INDICATES FEW OR NO CLOUDS BELOW 12,000 FEET WITH NO
SIGNIFICANT WEATHER AND/OR OBSTRUCTIONS TO VISIBILITY.


SDZ001>005-009-010-012>017-191300-
NORTHWEST AND NORTH CENTRAL SOUTH DAKOTA

CITY           SKY/WX    TMP DP  RH WIND       PRES   REMARKS
BUFFALO          N/A     32  20  61 W3        29.44F
FAITH            N/A     22  17  81 N3        29.51F
MOBRIDGE         N/A     15   9  76 E5        29.52F WCI   8
$$

SDZ012>016-024>037-041>051-057-063-072>074-191300-
SOUTHWEST AND SOUTH CENTRAL SOUTH DAKOTA

CITY           SKY/WX    TMP DP  RH WIND       PRES   REMARKS
RAPID CTY ARPT CLOUDY    26  18  71 CALM      29.52F
PIERRE         PTCLDY    12  11  95 CALM      29.55F FOG
CUSTER         CLOUDY    29  12  49 NW3       29.55F
ELLSWORTH AFB  CLOUDY    28  18  64 W3        29.51F
PHILIP         CLOUDY    13  11  92 W5        29.55S WCI   5
PINE RIDGE     CLOUDY    25  18  74 W3        29.56F
SPEARFISH      FAIR      34  18  51 CALM      29.53F
WINNER         FAIR      34  28  79 SE7       29.59F WCI  28
$$

SDZ004>011-016>023-039-040-191300-
NORTHEAST SOUTH DAKOTA

CITY           SKY/WX    TMP DP  RH WIND       PRES   REMARKS
ABERDEEN       FOG       15  12  88 S3        29.63F VSB 1/4
WATERTOWN      CLOUDY    30  29  96 S13       29.65S WCI  20
BROOKINGS      CLEAR     33  31  92 S15       29.69S WCI  23
SISSETON         N/A     35  32  88 S9        29.65R WCI  28
$$

SDZ017-020-022-023-036>040-048>070-191300-
SOUTHEAST SOUTH DAKOTA

CITY           SKY/WX    TMP DP  RH WIND       PRES   REMARKS
SIOUX FALLS    CLEAR     36  33  89 S9        29.74S
HURON          CLOUDY    34  33  96 S15       29.64S WCI  24
CHAMBERLAIN    CLOUDY    34  32  95 SE6       29.60S WCI  28
MITCHELL       CLEAR     33  32  96 SE12      29.67F WCI  24
YANKTON        CLEAR     34  28  80 E6        29.72F WCI  29
$$

ABBREVIATIONS USED IN REMARKS
   TC - TEMPERATURE IN CELSIUS
  WCI - WIND CHILL INDEX
   HX - HEAT INDEX
  VSB - VISIBILITY





USA.gov is the U.S. government's official web portal to all federal, state and local government web resources and services.